[[{"header":{"parameterUnit":"m.s-1","parameterCategory":1,"la1":30.2991,"la2":30.254,"lo1":-89.0895,"lo2":-89.0444,"dy":0.0017,"dx":0.0017,"nx":28,"ny":28,"refTime":"2024-04-14T21:00:00:Z","depth":0,"parameterNumber":2,"parameterNumberName":"U-component_of_WINDS"},"data":[0,0,0,0,0,0,0,0,0,0,0,0,0,0,0,0,0,0,0,0,0,0,0,0,0,0,0,0,0,0,0,0,0,0,0,0,0,0,0,0,0,0,0,0,0,0,0,0,0,0,0,0,0,0,0,0,0,0,-5.2373,-5.2374,0,-5.2468,-5.2469,-5.247,-5.2425,-5.2423,-5.242,-5.2418,-5.2517,-5.2522,-5.2527,0,0,0,0,0,0,0,0,0,0,0,0,0,-5.2157,-5.2161,-5.2373,-5.2374,-5.2375,-5.2468,-5.2469,-5.247,-5.2426,-5.2423,-5.242,-5.2417,-5.2516,-5.2521,-5.2527,0,0,0,0,0,0,0,0,0,0,0,0,0,-5.2251,-5.2163,-5.2373,-5.2364,-5.2364,-5.2467,-5.2469,-5.2471,-5.2426,-5.2423,-5.2419,-5.2416,-5.2514,-5.2521,-5.2528,-5.2646,0,0,-5.255,-5.2554,0,0,0,0,0,0,0,0,-5.2246,-5.2259,-5.2364,-5.2365,-5.2365,-5.2431,-5.2429,-5.2529,-5.2427,-5.2403,-5.2418,-5.2414,-5.2492,-5.25,-5.2526,-5.265,-5.2655,-5.2551,-5.2555,-5.2559,-5.2561,0,0,0,0,0,0,0,-5.224,-5.2255,-5.2411,-5.2366,-5.2367,-5.2357,-5.2366,-5.2448,-5.2466,-5.2405,-5.2402,-5.2413,-5.2491,-5.2519,-5.2528,-5.2656,-5.2551,-5.2557,-5.2562,-5.2565,-5.2883,-5.2886,0,0,0,0,0,0,-5.2233,-5.225,-5.2408,-5.2413,-5.2296,-5.2364,-5.2374,-5.2414,-5.2465,-5.247,-5.2416,-5.2411,-5.2508,-5.252,-5.2532,-5.2672,-5.2559,-5.2565,-5.257,-5.2879,-5.2883,-5.2888,0,0,0,0,0,0,-5.2228,-5.2247,-5.2404,-5.2331,-5.235,-5.2371,-5.2416,-5.2417,-5.2445,-5.2474,-5.2477,-5.2441,-5.2506,-5.2521,-5.2618,-5.2675,-5.2569,-5.2575,-5.2874,-5.288,-5.2886,-5.2954,0,0,0,0,0,0,-5.2222,-5.2246,-5.229,-5.2332,-5.2354,-5.2487,-5.2419,-5.2422,-5.2458,-5.2452,-5.2498,-5.2503,-5.2504,-5.2607,-5.2625,-5.2683,-5.2581,-5.2869,-5.2877,-5.2884,-5.2947,-5.2962,-5.2975,0,0,0,0,0,-5.2215,-5.2306,-5.2292,-5.2312,-5.2409,-5.2491,-5.2503,-5.2502,-5.2463,-5.2507,-5.2526,-5.2501,-5.2667,-5.2617,-5.2637,-5.2698,-5.2865,-5.2874,-5.2883,-5.2941,-5.2959,-5.2975,0,0,0,0,0,0,-5.227,-5.2311,-5.2296,-5.2404,-5.2444,-5.2483,-5.2539,-5.2522,-5.2575,-5.2567,-5.2565,-5.2576,-5.2676,-5.2697,-5.2641,-5.2816,-5.276,-5.2773,-5.2797,-5.2815,-5.2828,-5.282,-5.2587,0,0,0,0,0,-5.2295,-5.2356,-5.239,-5.2481,-5.2502,-5.2517,-5.2553,-5.2549,-5.2591,-5.2608,-5.2634,-5.2676,-5.2737,-5.2778,-5.2836,-5.2952,-5.2961,-5.3004,-5.3018,-5.3029,-5.304,-5.3102,-5.3122,-5.2918,-5.2918,-5.2917,0,0,-5.2346,-5.2376,-5.2415,-5.2493,-5.2523,-5.2588,-5.2532,-5.2602,-5.2651,-5.2619,-5.271,-5.2732,-5.2779,-5.2885,-5.2934,-5.2906,-5.3099,-5.3041,-5.3049,-5.3054,-5.3114,-5.3133,-5.315,-5.2924,-5.2923,-5.2922,0,0,-5.2471,-5.2501,-5.258,-5.2613,-5.266,-5.267,-5.2689,-5.2732,-5.2744,-5.2836,-5.2814,-5.2873,-5.2978,-5.3013,-5.3044,-5.3187,-5.3166,-5.3207,-5.3278,-5.3339,-5.3355,-5.3369,-5.3419,-5.3437,-5.3218,-5.3218,-5.3218,0,-5.2529,-5.2624,-5.2623,-5.2696,-5.2731,-5.2706,-5.2786,-5.2818,-5.2883,-5.2908,-5.2877,-5.301,-5.304,-5.3154,-5.3189,-5.3216,-5.3238,-5.3199,-5.3353,-5.3367,-5.338,-5.3427,-5.3446,-5.3222,-5.3222,-5.3221,-5.3221,0,-5.2693,-5.276,-5.2818,-5.288,-5.2922,-5.2999,-5.301,-5.3054,-5.3048,-5.3061,-5.3157,-5.3193,-5.3258,-5.3286,-5.328,-5.34,-5.3381,-5.3352,-5.3295,-5.3404,-5.3448,-5.3467,-5.3229,-5.3227,-5.3226,-5.3225,0,0,-5.2852,-5.2914,-5.2935,-5.2963,-5.3015,-5.3067,-5.3144,-5.3207,-5.3244,-5.3291,-5.3354,-5.3446,-5.342,-5.3456,-5.3455,-5.3509,-5.3619,-5.3473,-5.3474,-5.3497,-5.3752,-5.3771,-5.3792,-5.3607,-5.361,-5.3613,-5.3747,0,-5.298,-5.3111,-5.3114,-5.3235,-5.3297,-5.3276,-5.3342,-5.3382,-5.3398,-5.3454,-5.3473,-5.3537,-5.3498,-5.352,-5.3573,-5.3594,-5.3669,-5.3585,-5.3666,-5.3668,-5.3651,-5.3815,-5.3836,-5.396,-5.3764,-5.3767,-5.377,0,-5.3145,-5.3196,-5.3323,-5.3367,-5.3393,-5.3452,-5.3511,-5.3565,-5.3611,-5.3619,-5.3661,-5.3652,-5.3732,-5.3676,-5.3785,-5.3728,-5.3762,-5.3778,-5.3783,-5.3787,-5.3723,-5.3822,-5.4,-5.4018,-5.3797,-5.3795,-5.3793,0,-5.3246,-5.3347,-5.3436,-5.3461,-5.3515,-5.3557,-5.3582,-5.3624,-5.3662,-5.3715,-5.374,-5.3801,-5.3835,-5.3883,-5.3893,-5.3851,-5.4002,-5.3947,-5.4011,-5.4011,-5.4041,-5.4038,-5.4224,-5.4068,-5.4068,-5.4067,-5.4067,0,-5.3387,-5.3465,-5.3482,-5.3536,-5.3624,-5.3628,-5.3715,-5.3737,-5.3775,-5.3834,-5.3822,-5.3878,-5.3888,-5.3947,-5.3956,-5.4045,-5.4061,-5.4069,-5.407,-5.4069,-5.4067,-5.4089,-5.4079,-5.4072,-5.4071,-5.407,-5.4069,0,-5.3512,-5.3527,-5.3622,-5.3666,-5.3679,-5.3742,-5.3779,-5.3832,-5.3848,-5.3924,-5.3942,-5.3967,-5.4036,-5.4051,-5.4134,-5.4139,-5.4245,-5.4239,-5.4228,-5.4227,-5.4289,-5.4282,-5.4493,-5.452,-5.4349,-5.435,-5.4352,0,-5.3599,-5.3659,-5.3709,-5.3747,-5.3774,-5.3836,-5.3875,-5.3883,-5.3924,-5.3982,-5.4028,-5.4096,-5.415,-5.4262,-5.4288,-5.4351,-5.4345,-5.4415,-5.4354,-5.4351,-5.4344,-5.4339,-5.4344,-5.4425,-5.4427,-5.4428,-5.4429,0,-5.3752,-5.3757,-5.3813,-5.3872,-5.3919,-5.3967,-5.4012,-5.4045,-5.4059,-5.4106,-5.4176,-5.4218,-5.4303,-5.437,-5.4434,-5.4461,-5.4448,-5.4449,-5.4467,-5.4464,-5.4455,-5.4459,-5.4257,-5.4443,-5.4442,-5.4441,-5.444,-5.4439,-5.386,-5.3912,-5.3955,-5.4018,-5.4053,-5.4096,-5.4148,-5.4171,-5.4229,-5.4297,-5.4299,-5.4376,-5.4422,-5.4506,-5.4538,-5.4598,-5.4577,-5.4603,-5.4609,-5.4615,-5.4619,-5.4448,-5.4611,-5.461,-5.461,-5.461,-5.4609,0,-5.401,-5.4037,-5.4096,-5.4159,-5.4209,-5.4193,-5.4243,-5.4287,-5.4353,-5.4398,-5.4451,-5.4532,-5.4598,-5.4631,-5.4697,-5.4739,-5.4735,-5.4756,-5.4752,-5.4758,-5.4636,-5.4613,-5.4759,-5.4759,-5.4758,-5.4758,-5.4758,-5.4758,-5.4093,-5.418,-5.4191,-5.4295,-5.4323,-5.4396,-5.4426,-5.4466,-5.4501,-5.4592,-5.4646,-5.4667,-5.4708,-5.4776,-5.4837,-5.4845,-5.4869,-5.4893,-5.4898,-5.4782,-5.4767,-5.4752,-5.473,-5.4898,-5.4898,-5.5014,-5.5016,-5.5016]},{"header":{"parameterUnit":"m.s-1","parameterCategory":1,"la1":30.2991,"la2":30.254,"lo1":-89.0895,"lo2":-89.0444,"dy":0.0017,"dx":0.0017,"nx":28,"ny":28,"refTime":"2024-04-14T21:00:00:Z","depth":0,"parameterNumber":3,"parameterNumberName":"V-component_of_WINDS"},"data":[0,0,0,0,0,0,0,0,0,0,0,0,0,0,0,0,0,0,0,0,0,0,0,0,0,0,0,0,0,0,0,0,0,0,0,0,0,0,0,0,0,0,0,0,0,0,0,0,0,0,0,0,0,0,0,0,0,0,4.2451,4.2452,0,4.2589,4.2591,4.2592,4.2647,4.2647,4.2646,4.2646,4.2781,4.2785,4.2789,0,0,0,0,0,0,0,0,0,0,0,0,0,4.2228,4.2232,4.2451,4.2452,4.2454,4.2589,4.2591,4.2593,4.2647,4.2647,4.2646,4.2646,4.278,4.2784,4.2789,0,0,0,0,0,0,0,0,0,0,0,0,0,4.2341,4.2233,4.245,4.2498,4.2504,4.2588,4.2591,4.2593,4.2647,4.2647,4.2646,4.2646,4.2778,4.2784,4.279,4.2835,0,0,4.2807,4.281,0,0,0,0,0,0,0,0,4.2335,4.2349,4.2489,4.2495,4.2501,4.2601,4.2562,4.2674,4.2647,4.2592,4.2646,4.2646,4.2721,4.2731,4.2758,4.2842,4.2848,4.2808,4.2811,4.2814,4.2816,0,0,0,0,0,0,0,4.2327,4.2344,4.2505,4.2491,4.2499,4.251,4.2526,4.2583,4.2657,4.2597,4.2602,4.2618,4.2724,4.2752,4.2762,4.285,4.2808,4.2813,4.2817,4.2819,4.2978,4.2978,0,0,0,0,0,0,4.2312,4.2337,4.2501,4.2509,4.2415,4.2515,4.2532,4.2569,4.2657,4.267,4.2618,4.262,4.2743,4.2755,4.2767,4.2827,4.2814,4.2819,4.2823,4.2977,4.2978,4.2979,0,0,0,0,0,0,4.2307,4.2326,4.2495,4.2425,4.2447,4.2519,4.256,4.2572,4.2601,4.2673,4.2686,4.2634,4.2743,4.2758,4.2819,4.2832,4.2822,4.2827,4.2976,4.2977,4.2978,4.2947,0,0,0,0,0,0,4.2301,4.2324,4.2344,4.2425,4.2451,4.2547,4.2561,4.2575,4.2611,4.2615,4.2691,4.2703,4.2744,4.281,4.2824,4.284,4.2832,4.2975,4.2977,4.2978,4.2947,4.2947,4.2947,0,0,0,0,0,4.2292,4.2328,4.2345,4.2364,4.2477,4.2547,4.2562,4.261,4.2612,4.2632,4.2678,4.2701,4.2828,4.2815,4.2832,4.285,4.2975,4.2976,4.2978,4.2948,4.2947,4.2947,0,0,0,0,0,0,4.2245,4.2339,4.2359,4.2422,4.2477,4.2557,4.2583,4.2608,4.2661,4.2662,4.2717,4.2734,4.2789,4.2825,4.2809,4.2899,4.2903,4.2908,4.2874,4.2874,4.2874,4.2865,4.2837,0,0,0,0,0,4.2242,4.2293,4.2372,4.242,4.2447,4.251,4.2542,4.2575,4.2632,4.2655,4.2706,4.2759,4.2812,4.2845,4.2897,4.2952,4.297,4.2973,4.2973,4.2972,4.2976,4.3009,4.3011,4.2984,4.2984,4.2984,0,0,4.2236,4.2294,4.2323,4.2412,4.2458,4.2509,4.2529,4.2581,4.2619,4.2662,4.2724,4.2762,4.2825,4.2884,4.2912,4.2915,4.2987,4.2974,4.2973,4.2978,4.3011,4.3013,4.3015,4.2985,4.2985,4.2985,0,0,4.2251,4.23,4.2346,4.2392,4.2463,4.2505,4.2515,4.2592,4.262,4.2683,4.2717,4.2761,4.2849,4.2894,4.2927,4.2959,4.2982,4.2974,4.2973,4.3004,4.3006,4.3009,4.302,4.3024,4.2978,4.2977,4.2977,0,4.2234,4.2314,4.2366,4.2418,4.2456,4.2499,4.2546,4.2587,4.2669,4.2694,4.2697,4.281,4.2856,4.2925,4.2933,4.2959,4.2972,4.2966,4.3002,4.3005,4.3008,4.302,4.3024,4.2976,4.2976,4.2976,4.2977,0,4.229,4.2344,4.2373,4.2454,4.2495,4.2543,4.2601,4.2636,4.2664,4.2705,4.2767,4.2824,4.2888,4.2907,4.2934,4.298,4.298,4.2992,4.2997,4.3008,4.302,4.3025,4.2974,4.2975,4.2975,4.2975,0,0,4.228,4.239,4.24,4.2438,4.2519,4.2561,4.261,4.2675,4.2704,4.2759,4.2802,4.2876,4.2888,4.2926,4.2958,4.2985,4.3008,4.2994,4.2996,4.2995,4.3062,4.3054,4.3058,4.3023,4.3024,4.3025,4.3057,0,4.2307,4.2401,4.2449,4.2521,4.2571,4.2614,4.2657,4.271,4.2749,4.2796,4.2838,4.289,4.2901,4.2925,4.2954,4.2999,4.3022,4.2997,4.3062,4.3063,4.3046,4.3064,4.3056,4.3084,4.3062,4.3063,4.3064,0,4.2351,4.2409,4.2486,4.2562,4.2585,4.2623,4.2687,4.2732,4.2792,4.2819,4.2862,4.2894,4.2946,4.2946,4.3018,4.3,4.3029,4.3054,4.3057,4.3065,4.3065,4.3074,4.3094,4.3098,4.3071,4.3071,4.307,0,4.2337,4.2433,4.2493,4.2524,4.2613,4.2639,4.2677,4.2737,4.2773,4.2828,4.2852,4.2911,4.2943,4.2987,4.3033,4.3029,4.31,4.3105,4.3123,4.3122,4.3137,4.3136,4.3162,4.3154,4.3154,4.3154,4.3153,0,4.2363,4.2409,4.2488,4.2525,4.2577,4.2631,4.2681,4.2721,4.2775,4.2818,4.2857,4.2897,4.2955,4.3001,4.3037,4.3091,4.3105,4.3127,4.3136,4.3125,4.3122,4.3145,4.3145,4.3155,4.3154,4.3154,4.3154,0,4.2357,4.2412,4.248,4.2559,4.258,4.2615,4.2682,4.2718,4.2759,4.2814,4.283,4.2894,4.295,4.3001,4.3075,4.3099,4.3155,4.3165,4.3135,4.314,4.3156,4.3155,4.32,4.3208,4.3193,4.3193,4.3193,0,4.2371,4.2408,4.2492,4.2525,4.2563,4.2616,4.2654,4.2707,4.2745,4.2817,4.2844,4.2904,4.2955,4.3043,4.3094,4.3151,4.3164,4.3176,4.3173,4.316,4.3166,4.3163,4.3167,4.3176,4.3176,4.3176,4.3176,0,4.2389,4.2415,4.2469,4.2533,4.2578,4.263,4.2683,4.2708,4.2771,4.281,4.2871,4.291,4.2987,4.3046,4.3109,4.3145,4.3171,4.3176,4.3184,4.3173,4.3154,4.3165,4.3135,4.3175,4.3175,4.3175,4.3175,4.3175,4.2394,4.2429,4.2495,4.2554,4.26,4.2649,4.2687,4.2734,4.2785,4.2854,4.2882,4.2942,4.3001,4.3088,4.3125,4.3172,4.3176,4.3187,4.319,4.3192,4.319,4.3146,4.3183,4.3183,4.3183,4.3183,4.3183,0,4.2416,4.246,4.2514,4.2589,4.2635,4.2657,4.2717,4.2753,4.2807,4.2861,4.2911,4.2979,4.3037,4.3093,4.3152,4.3179,4.3192,4.3193,4.3192,4.32,4.3182,4.317,4.3181,4.3181,4.3181,4.3181,4.3181,4.3181,4.2433,4.2494,4.2527,4.261,4.2653,4.2716,4.2748,4.2793,4.2836,4.2912,4.296,4.2997,4.3052,4.3115,4.3168,4.3183,4.3203,4.3201,4.3219,4.3201,4.3201,4.3201,4.319,4.3205,4.3205,4.3233,4.3233,4.3234]}]]